| time (UTC) | temp F | wind direction | speed MPH | gust MPH | rain 1hr in | rain 24hr in | rain mn in | humidity % | barometer mb |
| 20260906225232 | 97 | 297 | 3.0 | 0.0 | 0.00 | 0.00 | 0.00 | 31 | |
| 20260906224232 | 97 | 27 | 3.0 | 0.0 | 0.00 | 0.00 | 0.00 | 31 | |
| 20260906223232 | 97 | 27 | 3.0 | 0.0 | 0.00 | 0.00 | 0.00 | 31 | |
| 20260906222232 | 97 | 24 | 5.0 | 0.0 | 0.00 | 0.00 | 0.00 | 29 | |
| 20260906221235 | 97 | 304 | 2.0 | 0.0 | 0.00 | 0.00 | 0.00 | 30 | |
| 20260906220232 | 97 | 304 | 2.0 | 0.0 | 0.00 | 0.00 | 0.00 | 30 | |
| 20260906215232 | 98 | 53 | 3.0 | 0.0 | 0.00 | 0.00 | 0.00 | 29 | |
| 20260906214232 | 98 | 336 | 4.0 | 0.0 | 0.00 | 0.00 | 0.00 | 29 | |
| 20260906213232 | 98 | 336 | 4.0 | 0.0 | 0.00 | 0.00 | 0.00 | 29 | |
| 20260906212232 | 98 | 81 | 1.0 | 0.0 | 0.00 | 0.00 | 0.00 | 31 | |
| 20260906211232 | 98 | 29 | 6.0 | 0.0 | 0.00 | 0.00 | 0.00 | 31 | |
| 20260906210232 | 98 | 29 | 6.0 | 0.0 | 0.00 | 0.00 | 0.00 | 31 | |
| 20260906205232 | 97 | 344 | 4.0 | 0.0 | 0.00 | 0.00 | 0.00 | 31 | |
| 20260906204232 | 96 | 302 | 4.0 | 0.0 | 0.00 | 0.00 | 0.00 | 34 | |
| 20260906203232 | 96 | 302 | 4.0 | 0.0 | 0.00 | 0.00 | 0.00 | 34 | |
| 20260906202232 | 97 | 330 | 8.0 | 0.0 | 0.00 | 0.00 | 0.00 | 33 | |
| 20260906201232 | 95 | 325 | 4.0 | 0.0 | 0.00 | 0.00 | 0.00 | 35 | |
| 20260906200255 | 95 | 325 | 4.0 | 0.0 | 0.00 | 0.00 | 0.00 | 35 | |
| 20260906195232 | 95 | 11 | 4.0 | 0.0 | 0.00 | 0.00 | 0.00 | 36 | |
| 20260906194232 | 95 | 315 | 3.0 | 0.0 | 0.00 | 0.00 | 0.00 | 35 | |
| 20260906193232 | 95 | 315 | 3.0 | 0.0 | 0.00 | 0.00 | 0.00 | 35 | |
| 20260906192232 | 95 | 348 | 4.0 | 0.0 | 0.00 | 0.00 | 0.00 | 37 | |
| 20260906191232 | 96 | 7 | 6.0 | 0.0 | 0.00 | 0.00 | 0.00 | 35 | |
| 20260906190233 | 96 | 7 | 6.0 | 0.0 | 0.00 | 0.00 | 0.00 | 35 | |
| 20260906185232 | 95 | 327 | 5.0 | 0.0 | 0.00 | 0.00 | 0.00 | 36 | |
| 20260906184233 | 95 | 0 | 8.0 | 0.0 | 0.00 | 0.00 | 0.00 | 35 | |
| 20260906183232 | 95 | 0 | 8.0 | 0.0 | 0.00 | 0.00 | 0.00 | 35 | |
| 20260906182253 | 95 | 350 | 4.0 | 0.0 | 0.00 | 0.00 | 0.00 | 36 | |
| 20260906181232 | 94 | 11 | 5.0 | 0.0 | 0.00 | 0.00 | 0.00 | 38 | |
| 20260906180253 | 94 | 11 | 5.0 | 0.0 | 0.00 | 0.00 | 0.00 | 38 | |
| 20260906175234 | 93 | 63 | 5.0 | 0.0 | 0.00 | 0.00 | 0.00 | 39 | |
| 20260906174232 | 92 | 353 | 7.0 | 0.0 | 0.00 | 0.00 | 0.00 | 41 | |
| 20260906173232 | 92 | 353 | 7.0 | 0.0 | 0.00 | 0.00 | 0.00 | 41 | |
| 20260906172232 | 92 | 18 | 4.0 | 0.0 | 0.00 | 0.00 | 0.00 | 42 | |
| 20260906171253 | 92 | 0 | 4.0 | 0.0 | 0.00 | 0.00 | 0.00 | 41 | |
| 20260906170232 | 92 | 0 | 4.0 | 0.0 | 0.00 | 0.00 | 0.00 | 41 | |
| 20260906165232 | 91 | 71 | 3.0 | 0.0 | 0.00 | 0.00 | 0.00 | 46 | |
| 20260906164233 | 91 | 24 | 6.0 | 0.0 | 0.00 | 0.00 | 0.00 | 45 | |
| 20260906163232 | 91 | 24 | 6.0 | 0.0 | 0.00 | 0.00 | 0.00 | 45 | |
| 20260906162232 | 91 | 352 | 6.0 | 0.0 | 0.00 | 0.00 | 0.00 | 45 | |
| 20260906161233 | 91 | 299 | 6.0 | 0.0 | 0.00 | 0.00 | 0.00 | 47 | |
| 20260906160232 | 91 | 299 | 6.0 | 0.0 | 0.00 | 0.00 | 0.00 | 47 | |
| 20260906155232 | 91 | 263 | 4.0 | 0.0 | 0.00 | 0.00 | 0.00 | 48 | |
| 20260906154234 | 89 | 0 | 5.0 | 0.0 | 0.00 | 0.00 | 0.00 | 51 | |
| 20260906153253 | 89 | 0 | 5.0 | 0.0 | 0.00 | 0.00 | 0.00 | 51 | |
| 20260906152232 | 89 | 16 | 3.0 | 0.0 | 0.00 | 0.00 | 0.00 | 53 | |
| 20260906151232 | 89 | 6 | 1.0 | 0.0 | 0.00 | 0.00 | 0.00 | 55 | |
| 20260906150253 | 89 | 6 | 1.0 | 0.0 | 0.00 | 0.00 | 0.00 | 55 | |
| 20260906145233 | 88 | 325 | 0.0 | 0.0 | 0.00 | 0.00 | 0.00 | 57 | |
| 20260906144232 | 88 | 206 | 0.0 | 0.0 | 0.00 | 0.00 | 0.00 | 59 | |
| 20260906143232 | 88 | 206 | 0.0 | 0.0 | 0.00 | 0.00 | 0.00 | 59 | |
| 20260906142253 | 87 | 267 | 0.0 | 0.0 | 0.00 | 0.00 | 0.00 | 60 | |
| 20260906141232 | 85 | 181 | 0.0 | 0.0 | 0.00 | 0.00 | 0.00 | 63 | |
| 20260906140232 | 85 | 181 | 0.0 | 0.0 | 0.00 | 0.00 | 0.00 | 63 | |
| 20260906135253 | 84 | 325 | 2.0 | 0.0 | 0.00 | 0.00 | 0.00 | 65 | |
| 20260906134232 | 83 | 337 | 2.0 | 0.0 | 0.00 | 0.00 | 0.00 | 69 | |
| 20260906133235 | 83 | 337 | 2.0 | 0.0 | 0.00 | 0.00 | 0.00 | 69 | |
| 20260906132232 | 82 | 330 | 0.0 | 0.0 | 0.00 | 0.00 | 0.00 | 73 | |
| 20260906131232 | 81 | 322 | 1.0 | 0.0 | 0.00 | 0.00 | 0.00 | 74 | |
| 20260906130232 | 81 | 322 | 1.0 | 0.0 | 0.00 | 0.00 | 0.00 | 74 | |
| 20260906125232 | 80 | 298 | 0.0 | 0.0 | 0.00 | 0.00 | 0.00 | 76 | |
| 20260906124253 | 79 | 269 | 1.0 | 0.0 | 0.00 | 0.00 | 0.00 | 78 | |
| 20260906123232 | 79 | 269 | 1.0 | 0.0 | 0.00 | 0.00 | 0.00 | 78 | |
| 20260906122232 | 79 | 289 | 0.0 | 0.0 | 0.00 | 0.00 | 0.00 | 78 | |
| 20260906121233 | 79 | 246 | 1.0 | 0.0 | 0.00 | 0.00 | 0.00 | 78 | |
| 20260906120253 | 79 | 246 | 1.0 | 0.0 | 0.00 | 0.00 | 0.00 | 78 | |
| 20260906115232 | 78 | 250 | 1.0 | 0.0 | 0.00 | 0.00 | 0.00 | 78 | |
| 20260906114232 | 79 | 5 | 0.0 | 0.0 | 0.00 | 0.00 | 0.00 | 78 | |
| 20260906113232 | 79 | 5 | 0.0 | 0.0 | 0.00 | 0.00 | 0.00 | 78 | |
| 20260906112254 | 78 | 284 | 0.0 | 0.0 | 0.00 | 0.00 | 0.00 | 78 | |
| 20260906111253 | 78 | 120 | 0.0 | 0.0 | 0.00 | 0.00 | 0.00 | 78 | |
| 20260906110232 | 79 | 103 | 0.0 | 0.0 | 0.00 | 0.00 | 0.00 | 78 | |
| 20260906105232 | 78 | 233 | 0.0 | 0.0 | 0.00 | 0.00 | 0.00 | 79 | |
| 20260906104232 | 79 | 184 | 0.0 | 0.0 | 0.00 | 0.00 | 0.00 | 77 | |
| 20260906103232 | 79 | 184 | 0.0 | 0.0 | 0.00 | 0.00 | 0.00 | 77 | |
| 20260906102232 | 80 | 305 | 0.0 | 0.0 | 0.00 | 0.00 | 0.00 | 75 | |
| 20260906101233 | 81 | 335 | 0.0 | 0.0 | 0.00 | 0.00 | 0.00 | 73 | |
| 20260906100253 | 81 | 335 | 0.0 | 0.0 | 0.00 | 0.00 | 0.00 | 73 | |
| 20260906095232 | 81 | 350 | 0.0 | 0.0 | 0.00 | 0.00 | 0.00 | 72 | |
| 20260906094232 | 81 | 65 | 0.0 | 0.0 | 0.00 | 0.00 | 0.00 | 72 | |
| 20260906093253 | 81 | 65 | 0.0 | 0.0 | 0.00 | 0.00 | 0.00 | 72 | |
| 20260906092232 | 81 | 78 | 0.0 | 0.0 | 0.00 | 0.00 | 0.00 | 72 | |
| 20260906091233 | 81 | 59 | 1.0 | 0.0 | 0.00 | 0.00 | 0.00 | 72 | |
| 20260906090232 | 81 | 55 | 0.0 | 0.0 | 0.00 | 0.00 | 0.00 | 72 | |
| 20260906085233 | 81 | 45 | 0.0 | 0.0 | 0.00 | 0.00 | 0.00 | 72 | |
| 20260906084232 | 81 | 99 | 0.0 | 0.0 | 0.00 | 0.00 | 0.00 | 71 | |
| 20260906083232 | 81 | 99 | 0.0 | 0.0 | 0.00 | 0.00 | 0.00 | 71 | |
| 20260906082232 | 82 | 48 | 2.0 | 0.0 | 0.00 | 0.00 | 0.00 | 70 | |
| 20260906081253 | 82 | 33 | 4.0 | 0.0 | 0.00 | 0.00 | 0.00 | 69 | |
| 20260906080253 | 82 | 33 | 4.0 | 0.0 | 0.00 | 0.00 | 0.00 | 69 | |
| 20260906075232 | 82 | 55 | 1.0 | 0.0 | 0.00 | 0.00 | 0.00 | 68 | |
| 20260906074232 | 82 | 56 | 1.0 | 0.0 | 0.00 | 0.00 | 0.00 | 67 | |
| 20260906073232 | 82 | 56 | 1.0 | 0.0 | 0.00 | 0.00 | 0.00 | 67 | |
| 20260906072232 | 83 | 7 | 1.0 | 0.0 | 0.00 | 0.00 | 0.00 | 65 | |
| 20260906071232 | 83 | 22 | 1.0 | 0.0 | 0.00 | 0.00 | 0.00 | 65 | |
| 20260906070236 | 83 | 83 | 0.0 | 0.0 | 0.00 | 0.00 | 0.00 | 64 | |
| 20260906065233 | 84 | 26 | 2.0 | 0.0 | 0.00 | 0.00 | 0.00 | 63 | |
| 20260906064253 | 84 | 49 | 2.0 | 0.0 | 0.00 | 0.00 | 0.00 | 62 | |
| 20260906063253 | 84 | 49 | 2.0 | 0.0 | 0.00 | 0.00 | 0.00 | 62 | |
| 20260906062253 | 84 | 51 | 2.0 | 0.0 | 0.00 | 0.00 | 0.00 | 62 | |
| 20260906061253 | 84 | 0 | 2.0 | 0.0 | 0.00 | 0.00 | 0.00 | 61 | |
| 20260906060232 | 84 | 0 | 2.0 | 0.0 | 0.00 | 0.00 | 0.00 | 61 | |
| 20260906055232 | 84 | 62 | 0.0 | 0.0 | 0.00 | 0.00 | 0.00 | 61 | |
| 20260906054232 | 84 | 87 | 0.0 | 0.0 | 0.00 | 0.00 | 0.00 | 60 | |
| 20260906053232 | 84 | 87 | 0.0 | 0.0 | 0.00 | 0.00 | 0.00 | 60 | |
| 20260906052232 | 85 | 78 | 1.0 | 0.0 | 0.00 | 0.00 | 0.00 | 60 | |
| 20260906051232 | 85 | 28 | 3.0 | 0.0 | 0.00 | 0.00 | 0.00 | 58 | |
| 20260906050232 | 85 | 28 | 3.0 | 0.0 | 0.00 | 0.00 | 0.00 | 58 | |
| 20260906045233 | 86 | 23 | 3.0 | 0.0 | 0.00 | 0.00 | 0.00 | 57 | |
| 20260906044232 | 86 | 108 | 0.0 | 0.0 | 0.00 | 0.00 | 0.00 | 56 | |
| 20260906043253 | 86 | 108 | 0.0 | 0.0 | 0.00 | 0.00 | 0.00 | 56 | |
| 20260906042253 | 86 | 53 | 1.0 | 0.0 | 0.00 | 0.00 | 0.00 | 56 | |
| 20260906041232 | 86 | 115 | 2.0 | 0.0 | 0.00 | 0.00 | 0.00 | 55 | |
| 20260906040232 | 86 | 115 | 2.0 | 0.0 | 0.00 | 0.00 | 0.00 | 55 | |
| 20260906035232 | 87 | 63 | 4.0 | 0.0 | 0.00 | 0.00 | 0.00 | 53 | |
| 20260906034232 | 87 | 58 | 1.0 | 0.0 | 0.00 | 0.00 | 0.00 | 52 | |
| 20260906033232 | 87 | 58 | 1.0 | 0.0 | 0.00 | 0.00 | 0.00 | 52 | |
| 20260906032232 | 88 | 30 | 5.0 | 0.0 | 0.00 | 0.00 | 0.00 | 50 | |
| 20260906031232 | 88 | 29 | 6.0 | 0.0 | 0.00 | 0.00 | 0.00 | 49 | |
| 20260906030232 | 88 | 29 | 6.0 | 0.0 | 0.00 | 0.00 | 0.00 | 49 | |
| 20260906025253 | 88 | 41 | 5.0 | 0.0 | 0.00 | 0.00 | 0.00 | 49 | |
| 20260906024234 | 88 | 347 | 5.0 | 0.0 | 0.00 | 0.00 | 0.00 | 49 | |
| 20260906023232 | 88 | 347 | 5.0 | 0.0 | 0.00 | 0.00 | 0.00 | 49 | |
| 20260906022232 | 89 | 46 | 7.0 | 0.0 | 0.00 | 0.00 | 0.00 | 48 | |
| 20260906021253 | 90 | 47 | 4.0 | 0.0 | 0.00 | 0.00 | 0.00 | 45 | |
| 20260906020232 | 90 | 47 | 4.0 | 0.0 | 0.00 | 0.00 | 0.00 | 45 | |
| 20260906015253 | 91 | 349 | 5.0 | 0.0 | 0.00 | 0.00 | 0.00 | 42 | |
| 20260906014232 | 93 | 45 | 4.0 | 0.0 | 0.00 | 0.00 | 0.00 | 40 | |
| 20260906013232 | 93 | 45 | 4.0 | 0.0 | 0.00 | 0.00 | 0.00 | 40 | |
| 20260906012232 | 94 | 7 | 6.0 | 0.0 | 0.00 | 0.00 | 0.00 | 35 | |
| 20260906011232 | 95 | 339 | 5.0 | 0.0 | 0.00 | 0.00 | 0.00 | 33 | |
| 20260906010233 | 95 | 339 | 5.0 | 0.0 | 0.00 | 0.00 | 0.00 | 33 | |
| 20260906005232 | 95 | 30 | 3.0 | 0.0 | 0.00 | 0.00 | 0.00 | 32 | |
| 20260906004232 | 96 | 1 | 5.0 | 0.0 | 0.00 | 0.00 | 0.00 | 31 | |
| 20260906003235 | 96 | 1 | 5.0 | 0.0 | 0.00 | 0.00 | 0.00 | 31 | |
| 20260906002232 | 96 | 11 | 4.0 | 0.0 | 0.00 | 0.00 | 0.00 | 30 | |
| 20260906001232 | 97 | 335 | 4.0 | 0.0 | 0.00 | 0.00 | 0.00 | 30 | |
| 20260906000233 | 97 | 335 | 4.0 | 0.0 | 0.00 | 0.00 | 0.00 | 30 | |
| 20260905235232 | 97 | 22 | 5.0 | 0.0 | 0.00 | 0.00 | 0.00 | 29 | |
| 20260905234253 | 97 | 351 | 2.0 | 0.0 | 0.00 | 0.00 | 0.00 | 29 | |
| 20260905233254 | 97 | 351 | 2.0 | 0.0 | 0.00 | 0.00 | 0.00 | 29 | |
| 20260905232232 | 97 | 340 | 4.0 | 0.0 | 0.00 | 0.00 | 0.00 | 29 | |
| 20260905231253 | 98 | 331 | 2.0 | 0.0 | 0.00 | 0.00 | 0.00 | 29 | |
| 20260905230232 | 98 | 331 | 2.0 | 0.0 | 0.00 | 0.00 | 0.00 | 29 |